User: anonymous   Login
Location: Taupo
(38.6830°S, 176.0830°E)
Time: 12:37:18
(UTC+13:00)
Language:

Cosmos 1869 - Orbit

View from above orbital plane
View from above orbital plane
View from above satellite
View from above satellite

Ground track
Ground track

The orbit data is extracted from the following two-line orbital elements,

1 18214U 87062A   19076.78299283  .00000833  00000-0  52232-4 0  9992
2 18214  82.5026 190.9146 0007972 136.5043 223.6816 15.08012148724739
Epoch (UTC): 17 March 2019 18:47:30
Eccentricity: 0.0007972
inclination: 82.5026°
perigee height: 537 km
apogee height: 548 km
right ascension of ascending node: 190.9146°
argument of perigee: 136.5043°
revolutions per day: 15.08012148
mean anomaly at epoch: 223.6816°
orbit number at epoch: 72473

The dashed part of the orbit path shows where the satellite is in the earth's shadow,  

DLR